Location: Pic du Midi - T1M
(42.9366°N, 0.1426°E)
Time: 10:54:10
(UTC+01:00)

X-37B - Pass Details

Date: 21 June 2021
Orbit: 383 x 392 km, 45.0° (Epoch: 01 July)

Event Time Altitude Azimuth Distance (km) Brightness Sun altitude
Exits shadow 03:37:48 - 285° (WNW) 1,568 3.4 -14.5°
Reaches altitude 10° 03:38:13 10° 284° (WNW) 1,398 3.2 -14.4°
Maximum altitude 03:41:20 70° 200° (SSW) 408 0.4 -14.1°
Drops below altitude 10° 03:44:28 10° 116° (ESE) 1,397 3.5 -13.7°
Sets 03:46:32 0° 114° (ESE) 2,250 4.6 -13.5°
